Location: Fillièvres
(50.3169°N, 2.1585°E)
Time: 11:27:31
(UTC+00:00)

Daily predictions for brighter satellites

Satellite Brightness Start Highest point End
(mag) Time Altitude Azimuth Time Altitude Azimuth Time Altitude Azimuth
SAR-Lupe-2 3.5 18:41:35 10° SSE 18:45:09 81° ENE 18:48:45 10° NNW
Cosmos 1315 Rocket 4.4 18:43:21 10° NNE 18:46:10 18° ENE 18:48:58 10° ESE
Meteor PRIRODA 3.3 18:46:40 10° SSE 18:49:55 64° ENE 18:53:12 10° N
ATLAS 2AS CENTAUR R/B 4.1 18:43:18 10° W 18:49:57 38° NNW 18:56:22 10° NE
Cosmos 1125 Rocket 4.1 18:45:10 10° NNW 18:50:03 39° ENE 18:54:55 10° SE
Cosmos 1842 3.3 18:48:05 10° N 18:51:36 46° ENE 18:55:05 10° SSE
USA 59 Rocket 0.2 18:49:26 10° NW 18:53:10 73° SW 18:58:17 10° SE
Cosmos 1536 3.7 18:51:24 10° SE 18:54:33 25° E 18:57:45 10° NNE
Okean 3 Rocket 4.3 18:51:05 10° SSE 18:55:01 31° E 18:58:56 10° NNE
Cosmos 1707 2.9 18:52:01 10° N 18:55:25 41° ENE 18:58:48 10° SSE
Cosmos 1515 Rocket 4.1 18:51:34 10° N 18:55:37 36° ENE 18:59:38 10° SE
Cosmos 2061 Rocket 4.3 18:49:21 10° SSW 18:55:48 80° W 19:02:17 10° N
COSMOS 2428 2.7 18:50:21 10° SSW 18:55:58 64° ESE 19:01:40 10° NE
Cosmos 1818 3.8 18:55:36 10° SW 19:01:04 80° NW 19:06:36 10° NE
Okean O Rocket 2.6 18:57:49 10° SE 19:01:39 29° ENE 19:05:28 10° N
Cosmos 2278 Rocket 2.2 19:00:24 10° NNW 19:06:06 79° ENE 19:11:47 10° SSE
USA 306 2.1 19:04:39 10° WSW 19:07:44 80° SSE 19:11:23 10° ENE
CZ-4B DEB 4.3 19:03:57 10° SSE 19:09:28 88° WSW 19:15:01 10° NNW
CZ-4 R/B 1.2 19:06:38 10° SSE 19:10:27 81° ENE 19:14:22 10° NNW
NOSS 2-1 (C) 4.3 19:09:50 10° NW 19:13:30 49° SW 19:18:26 10° SSE
CZ-4B R/B 3.2 19:08:36 10° SSE 19:13:58 62° ENE 19:19:16 10° N
Cosmos 1766 Rocket 3.5 19:10:13 10° S 19:14:35 85° E 19:19:00 10° N
Meteor 2-17 Rocket 4.4 19:09:28 10° N 19:15:33 76° ENE 19:21:37 10° SSE
Resurs 01 Rocket 1.6 19:11:38 10° SSE 19:16:01 65° ENE 19:20:24 10° N
Helios 1A 2.8 19:12:13 10° NNE 19:16:19 75° ESE 19:20:21 10° S
USA 290 2.5 19:13:17 10° NNW 19:16:34 69° WSW 19:19:50 10° SSE
ADEOS 4.1 19:13:32 10° S 19:18:41 62° WSW 19:23:53 10° NNW
GEOS 3 Rocket 3.8 19:13:59 10° SE 19:19:13 75° SW 19:24:25 10° NW
USA 186 1.7 19:18:05 10° SSE 19:21:17 75° ENE 19:24:32 10° N
CZ-4B R/B 4.1 19:16:53 10° S 19:21:32 55° WSW 19:26:17 10° NNW
Cosmos 1814 Rocket 4.0 19:17:01 10° SSW 19:22:19 89° ESE 19:27:36 10° NNE
KORONAS-FOTON 3.9 19:18:48 10° NNW 19:22:30 71° W 19:26:10 10° S
PAYLOAD B 4.3 19:16:59 10° SSE 19:22:36 89° WSW 19:28:15 10° NNW
Cosmos 2360 Rocket 4.2 19:17:42 10° WSW 19:22:36 30° NW 19:27:32 10° NNE
Cosmos 1743 4.3 19:19:51 10° SW 19:23:11 36° WNW 19:26:31 10° N
MOS 1-B 4.4 19:18:12 10° SE 19:23:52 61° ENE 19:29:34 10° N
SPOT 5 3.7 19:22:15 18° ESE 19:24:40 28° ENE 19:28:27 10° N
Okean-O 3.6 19:23:04 18° ESE 19:25:25 30° ENE 19:29:15 10° N
USA 267 3.9 19:21:30 10° ENE 19:27:45 51° N 19:34:01 10° WNW
Cosmos 1408 Rocket 4.0 19:24:39 10° SSE 19:28:42 39° E 19:32:50 10° NNE
ISS -3.1 19:26:27 10° SW 19:29:32 35° SSE 19:30:43 26° ESE
SPOT 1/Viking Rocket 4.4 19:24:50 10° S 19:29:52 53° W 19:34:56 10° NNW
NOSS 3-3 (A) 4.4 19:25:30 10° S 19:30:11 31° ESE 19:35:32 10° NE
CZ-4B R/B 3.3 19:26:43 10° S 19:30:33 64° WSW 19:34:36 10° NNW
Kosmos-1783 3.7 19:30:19 10° WSW 19:32:14 32° NW 19:33:12 17° NNE
SL-08 R/B 3.9 19:27:58 10° N 19:32:51 65° WNW 19:37:43 10° SSW
Cosmos 2237 Rocket 2.2 19:29:34 10° S 19:35:01 54° ESE 19:40:29 10° NE
Aureole 3 Rocket 4.1 19:31:34 10° SSE 19:37:45 41° E 19:42:20 10° NNE
CSL-04 Rocket 3.6 19:32:24 10° SSE 19:37:46 84° ENE 19:43:06 10° NNW
Cosmos 2219 Rocket 3.8 19:34:38 10° WSW 19:39:52 37° NW 19:45:07 10° NNE
Cosmos 1356 Rocket 4.0 19:38:21 10° NNW 19:42:30 60° W 19:46:35 10° S
Meteor 1-14 Rocket 4.4 19:38:16 10° SSW 19:43:47 75° WNW 19:49:22 10° N
Lacrosse 4 Rocket 4.2 19:41:39 10° WNW 19:44:10 15° WSW 19:46:40 10° SW
Meteor 1-4 Rocket 4.3 19:43:17 10° NW 19:45:28 22° W 19:47:38 10° SSW
Meteor 1-11 Rocket 3.6 19:41:14 10° S 19:46:47 66° E 19:52:17 10° NNE
MOS 1 Rocket 4.2 19:45:38 25° ESE 19:47:56 38° ENE 19:52:50 10° N
CARTOSAT-1 4.1 19:46:53 10° S 19:51:04 58° W 19:55:17 10° NNW
ATLAS CENTAUR R/B 1.1 19:48:27 10° SSW 19:51:54 49° SE 19:54:53 14° NE
Cosmos 158 Rocket 3.8 19:47:11 10° S 19:51:57 57° ESE 19:56:44 10° NNE
NOSS 3-4 (A) 4.2 19:46:26 10° NW 19:52:45 49° NE 19:57:11 23° E
NOSS 3-4 (C) 4.2 19:46:33 10° NW 19:52:51 49° NE 19:57:18 23° E
Cosmos 1805 Rocket 3.7 19:52:47 26° SSE 19:54:49 46° E 19:58:59 10° NNE
Cosmos 1428 Rocket 4.4 19:51:32 10° N 19:57:40 74° ENE 20:02:18 18° SSE
Cosmos 1733 3.1 19:55:41 10° SSW 19:59:06 69° W 20:02:33 10° N
In-Cosmos 22 4.4 19:54:40 10° NNW 20:00:22 71° W 20:05:54 10° S
USA 276 3.5 19:58:21 10° W 20:00:38 23° SSW 20:00:38 23° SSW
Cosmos 2369 Rocket 3.0 19:57:45 10° NNW 20:03:04 37° NE 20:05:12 27° E
Cosmos 1980 3.7 19:58:50 10° SSW 20:04:31 90° SE 20:10:16 10° NNE
Meteor 1-21 4.4 20:02:15 10° N 20:07:56 57° ENE 20:10:23 33° SE
Sich 1 2.9 20:07:33 25° S 20:09:58 71° E 20:14:17 10° NNE
Cosmos 1943 Rocket 2.7 20:04:46 10° NW 20:10:08 54° WSW 20:14:05 18° S
Cosmos 1707 Rocket 4.2 20:06:43 10° N 20:10:51 36° ENE 20:11:05 36° E
DELTA 2 DEB (DPAF) 4.2 20:07:44 10° NNE 20:11:46 47° E 20:11:47 47° E
NOSS 0 Rocket 4.3 20:06:56 10° SW 20:13:08 67° NW 20:19:24 10° NNE
Cosmos 2298 Rocket 4.0 20:08:42 10° NNW 20:14:02 89° W 20:16:27 34° SSE
Terra 2.3 20:13:52 39° E 20:14:38 42° ENE 20:19:04 10° N
Nadezhda 4 Rocket 4.4 20:08:46 10° NNW 20:14:58 65° W 20:21:11 10° S
Cosmos 2195 Rocket 4.4 20:09:01 10° N 20:15:11 86° E 20:19:12 23° S
ACS3 Solar Sail 2.0 20:09:35 13° S 20:15:19 77° WSW 20:21:46 10° NNW
ERS-1 Rocket 3.2 20:14:03 40° ESE 20:15:23 51° ENE 20:20:15 10° N
Cosmos 2150 Rocket 3.9 20:10:32 10° NNW 20:15:44 87° WSW 20:17:56 35° SSE
USA 32 3.9 20:11:07 10° N 20:16:24 88° E 20:19:24 27° S
Cosmos 1570 Rocket 4.0 20:11:56 10° SSW 20:17:13 81° WNW 20:22:31 10° NNE
Cosmos 1975 3.3 20:18:58 42° ENE 20:18:58 42° ENE 20:22:01 10° NNE
OPS 6432 4.3 20:18:18 10° NW 20:21:15 72° WNW 20:21:15 72° WNW
Cosmos 1805 3.0 20:21:37 59° SSW 20:22:15 87° W 20:25:56 10° N
Cosmos 1315 Rocket 3.6 20:18:40 10° NNW 20:22:31 48° W 20:24:26 26° SSW
Cosmos 2026 Rocket 3.9 20:16:15 10° N 20:22:32 83° E 20:25:51 29° SSE
Cosmos 1092 Rocket 3.9 20:16:39 10° N 20:23:01 82° E 20:26:29 29° SSE
Ariane Rocket 3.6 20:24:21 37° E 20:24:58 39° ENE 20:29:40 10° N
Meteor 2-12 Rocket 4.4 20:20:08 10° N 20:26:19 74° ENE 20:28:56 37° SSE
Cosmos 836 Rocket 4.4 20:22:26 10° SSW 20:27:44 84° ESE 20:33:04 10° NNE
IRS-1A Rocket 4.2 20:26:27 40° SE 20:28:37 74° ENE 20:34:18 10° NNW
Okean 3 4.0 20:29:16 10° N 20:32:45 44° NE 20:32:45 44° NE
SL-16 R/B 2.3 20:35:16 50° ESE 20:35:25 50° ESE 20:40:54 10° NE
Okean O Rocket 2.9 20:35:02 18° SSW 20:37:48 37° W 20:41:55 10° NNW
Cosmos 1634 Rocket 3.9 20:36:32 32° S 20:39:37 73° E 20:45:57 10° NNE
Cosmos 1656 Rocket 3.6 20:34:23 10° NNW 20:40:06 78° ENE 20:41:19 56° SE
SL-14 R/B 3.7 20:36:27 10° NNW 20:40:10 53° W 20:40:36 50° SW
USA 306 3.2 20:37:11 10° W 20:40:32 47° N 20:40:35 47° N
USA 59 Rocket 3.0 20:40:52 10° W 20:42:27 12° WSW 20:44:10 10° SW
ATLAS 2AS CENTAUR R/B 4.4 20:36:54 10° NW 20:42:46 27° N 20:48:28 10° ENE
CZ-4 R/B 4.4 20:44:43 10° W 20:45:33 11° W 20:46:23 10° WNW
IRS-1C Rocket 4.0 20:45:02 56° SSE 20:46:13 90° N 20:51:32 10° NNW
Cosmos 773 Rocket 3.9 20:45:39 38° SSW 20:47:45 81° ESE 20:53:05 10° NNE
Cosmos 2278 Rocket 4.4 20:45:32 10° NW 20:49:31 20° W 20:53:31 10° SW
Okean 1-7 4.1 20:45:39 10° N 20:48:39 34° NE 20:48:39 34° NE
Cosmos 2263 4.4 20:45:34 10° NNW 20:51:14 56° NE 20:51:55 53° E
Resurs 01 Rocket 4.3 20:50:01 10° SW 20:52:52 17° W 20:55:43 10° NW
Cosmos 2228 Rocket 3.1 20:50:42 10° NNW 20:55:17 82° W 20:55:20 82° WSW
Cosmos 1743 Rocket 4.4 20:56:20 30° SW 20:58:05 47° WNW 21:02:18 10° N
SPOT 3 Rocket 3.4 21:00:55 72° ENE 21:00:58 72° ENE 21:06:07 10° NNW
Okean-O 3.9 21:00:31 30° SW 21:01:42 36° W 21:05:48 10° NNW
SPOT 5 3.8 21:01:23 33° SW 21:02:34 40° W 21:06:47 10° NNW
Cosmos 2142 Rocket 4.4 21:02:36 62° ESE 21:02:54 63° E 21:08:59 10° NNE
ISS -1.2 21:02:50 10° W 21:03:42 17° W 21:03:42 17° W
NOSS 3-3 (C) 3.9 21:00:47 10° SW 21:06:17 76° NW 21:12:54 10° NE
USA 267 3.4 21:08:22 46° E 21:10:20 68° NNE 21:16:49 10° WNW
Cosmos 724 4.2 21:15:31 66° ENE 21:15:31 66° ENE 21:20:34 10° NE
Cosmos 2180 Rocket 4.4 21:17:01 70° ESE 21:17:14 70° E 21:23:35 10° NNE
Cosmos 2237 Rocket 3.8 21:14:15 10° WSW 21:19:20 34° NW 21:24:26 10° NNE
NOSS 3-3 (A) 4.2 21:15:03 10° WSW 21:20:33 63° NW 21:27:09 10° NE
Cosmos 2279 Rocket 3.9 21:20:00 62° SSW 21:21:10 85° W 21:27:26 10° N
Cosmos 1607 3.9 21:18:11 10° SW 21:24:40 86° NW 21:31:09 10° NE
Cosmos 2297 4.0 21:23:19 10° NW 21:28:49 55° WSW 21:28:59 55° WSW
ATLAS CENTAUR R/B 3.2 21:26:23 10° W 21:29:30 26° NW 21:29:51 25° NNW
Spot 2 Rocket 4.0 21:31:06 54° W 21:31:06 54° W 21:35:57 10° NNW
Cosmos 1633 Rocket 4.4 21:43:08 37° NNW 21:43:08 37° NNW 21:46:06 10° N
NOSS 3-4 (A) 4.0 21:37:14 10° NW 21:43:56 59° SW 21:44:37 57° SSW
NOSS 3-4 (C) 4.0 21:37:20 10° NW 21:44:03 59° SW 21:44:43 57° SSW
Cosmos 2369 Rocket 2.8 21:41:45 10° NW 21:46:58 49° W 21:46:58 49° W
Terra 3.4 21:52:34 28° W 21:52:34 28° W 21:56:24 10° NW
ACS3 Solar Sail 4.3 21:56:46 10° WSW 22:00:25 16° W 22:04:05 10° NW
Ariane Rocket 4.3 22:04:29 33° W 22:04:29 33° W 22:08:33 10° NNW
Cosmos 2266 Rocket 4.4 22:03:40 10° NNW 22:09:40 57° W 22:09:40 57° W
SL-16 R/B 3.6 22:17:01 23° W 22:19:44 36° NW 22:24:57 10° NNE
ATLAS 2AS CENTAUR R/B 3.6 22:29:00 10° NW 22:35:30 40° NNE 22:36:31 38° NE
Cosmos 1943 4.3 22:41:44 39° N 22:41:44 39° N 22:45:23 10° NNE
USA 267 4.1 22:55:43 39° W 22:55:43 39° W 22:59:54 10° WNW
Cosmos 1697 Rocket 4.1 22:48:23 10° NNW 22:52:28 32° NNE 22:52:28 32° NNE
Cosmos 2344 3.9 23:19:11 10° NW 23:27:14 83° WSW 23:27:14 83° WSW
Cosmos 1980 Rocket 3.6 23:48:36 10° NNW 23:52:14 34° N 23:52:14 34° N
